EN

Hourly Weather Oyyk

Today, 14 April, Wednesday

Time Temperature Precipitation Wind Pressure Humidity
00:00 +16°C° 0 mm 6 mps 732 mmHg 23%
01:00 +16°C° 0 mm 7 mps 732 mmHg 23%
02:00 +15°C° 0 mm 8 mps 731 mmHg 22%
03:00 +13°C° 0.1 mm 8 mps 732 mmHg 26%
04:00 +13°C° 0.1 mm 8 mps 732 mmHg 31%
05:00 +12°C° 0 mm 9 mps 732 mmHg 33%
06:00 +12°C° 0.1 mm 9 mps 732 mmHg 38%
07:00 +11°C° 0.1 mm 9 mps 733 mmHg 43%
08:00 +11°C° 0.1 mm 9 mps 733 mmHg 48%
09:00 +12°C° 0 mm 9 mps 733 mmHg 43%
10:00 +13°C° 0 mm 9 mps 733 mmHg 37%
11:00 +16°C° 0 mm 9 mps 732 mmHg 31%
12:00 +17°C° 0 mm 9 mps 732 mmHg 28%
13:00 +18°C° 0 mm 9 mps 732 mmHg 24%
14:00 +19°C° 0 mm 9 mps 731 mmHg 20%
15:00 +19°C° 0 mm 9 mps 731 mmHg 19%
16:00 +19°C° 0 mm 9 mps 731 mmHg 19%
17:00 +19°C° 0 mm 9 mps 730 mmHg 19%
18:00 +18°C° 0 mm 8 mps 730 mmHg 21%
19:00 +17°C° 0 mm 7 mps 730 mmHg 23%
20:00 +16°C° 0 mm 7 mps 729 mmHg 25%
21:00 +16°C° 0 mm 7 mps 729 mmHg 23%
22:00 +15°C° 0 mm 8 mps 729 mmHg 22%
23:00 +13°C° 0 mm 8 mps 729 mmHg 21%

Tomorrow, 15 April, Thursday

Time Temperature Precipitation Wind Pressure Humidity
00:00 +13°C° 0 mm 8 mps 728 mmHg 22%
01:00 +12°C° 0 mm 8 mps 728 mmHg 23%
02:00 +12°C° 0 mm 7 mps 728 mmHg 24%
03:00 +11°C° 0 mm 6 mps 728 mmHg 27%
04:00 +10°C° 0 mm 5 mps 728 mmHg 30%
05:00 +11°C° 0 mm 4 mps 729 mmHg 33%
06:00 +11°C° 0 mm 4 mps 729 mmHg 34%
07:00 +12°C° 0 mm 5 mps 729 mmHg 34%
08:00 +12°C° 0 mm 5 mps 729 mmHg 35%
09:00 +14°C° 0 mm 5 mps 729 mmHg 33%
10:00 +16°C° 0 mm 5 mps 729 mmHg 30%
11:00 +17°C° 0 mm 5 mps 729 mmHg 28%
12:00 +19°C° 0 mm 4 mps 729 mmHg 27%
13:00 +21°C° 0 mm 3 mps 729 mmHg 27%
14:00 +23°C° 0 mm 2 mps 729 mmHg 26%
15:00 +23°C° 0.1 mm 2 mps 728 mmHg 26%
16:00 +23°C° 0.1 mm 1 mps 728 mmHg 27%
17:00 +23°C° 0.1 mm 1 mps 728 mmHg 28%
18:00 +22°C° 0 mm 1 mps 728 mmHg 32%
19:00 +20°C° 0 mm 1 mps 728 mmHg 36%
20:00 +19°C° 0 mm 1 mps 728 mmHg 40%
21:00 +18°C° 0 mm 2 mps 728 mmHg 44%
22:00 +17°C° 0 mm 3 mps 727 mmHg 48%
23:00 +15°C° 0 mm 4 mps 727 mmHg 52%

Day after tomorrow, 16 April, Friday

Time Temperature Precipitation Wind Pressure Humidity
00:00 +16°C° 0 mm 3 mps 727 mmHg 52%
01:00 +15°C° 0 mm 2 mps 727 mmHg 53%
02:00 +15°C° 0 mm 2 mps 727 mmHg 54%
03:00 +15°C° 0 mm 2 mps 727 mmHg 54%
04:00 +14°C° 0 mm 2 mps 727 mmHg 54%
05:00 +14°C° 0 mm 2 mps 727 mmHg 54%
06:00 +15°C° 0 mm 2 mps 727 mmHg 51%
07:00 +17°C° 0 mm 2 mps 727 mmHg 49%
08:00 +18°C° 0 mm 3 mps 728 mmHg 47%
09:00 +20°C° 0 mm 4 mps 728 mmHg 40%
10:00 +22°C° 0 mm 5 mps 728 mmHg 32%
11:00 +23°C° 0 mm 6 mps 728 mmHg 25%
12:00 +24°C° 0 mm 7 mps 728 mmHg 24%
13:00 +24°C° 0 mm 8 mps 727 mmHg 23%
14:00 +24°C° 0 mm 9 mps 727 mmHg 22%
15:00 +24°C° 0 mm 9 mps 727 mmHg 22%
16:00 +24°C° 0 mm 9 mps 727 mmHg 23%
17:00 +23°C° 0 mm 9 mps 727 mmHg 23%
18:00 +22°C° 0 mm 7 mps 728 mmHg 27%
19:00 +20°C° 0 mm 6 mps 728 mmHg 31%
20:00 +19°C° 0 mm 4 mps 728 mmHg 36%
21:00 +18°C° 0 mm 4 mps 728 mmHg 38%
22:00 +17°C° 0 mm 3 mps 728 mmHg 41%
23:00 +16°C° 0 mm 3 mps 728 mmHg 43%

17 April, Saturday

Time Temperature Precipitation Wind Pressure Humidity
00:00 +16°C° 0 mm 3 mps 728 mmHg 45%
01:00 +14°C° 0 mm 3 mps 728 mmHg 46%
02:00 +14°C° 0 mm 3 mps 727 mmHg 48%
03:00 +13°C° 0 mm 3 mps 727 mmHg 48%
04:00 +13°C° 0 mm 3 mps 728 mmHg 49%
05:00 +14°C° 0 mm 2 mps 728 mmHg 49%
06:00 +15°C° 0 mm 2 mps 728 mmHg 46%
07:00 +16°C° 0 mm 2 mps 729 mmHg 42%
08:00 +18°C° 0 mm 1 mps 729 mmHg 39%
09:00 +20°C° 0 mm 1 mps 729 mmHg 36%
10:00 +21°C° 0 mm 1 mps 729 mmHg 32%
11:00 +22°C° 0 mm 1 mps 729 mmHg 29%
12:00 +23°C° 0 mm 2 mps 729 mmHg 27%
13:00 +24°C° 0 mm 2 mps 729 mmHg 25%
14:00 +24°C° 0 mm 2 mps 729 mmHg 24%
15:00 +24°C° 0 mm 2 mps 729 mmHg 23%
16:00 +25°C° 0 mm 2 mps 729 mmHg 23%
17:00 +25°C° 0 mm 2 mps 729 mmHg 23%
18:00 +23°C° 0 mm 2 mps 729 mmHg 25%
19:00 +21°C° 0 mm 2 mps 729 mmHg 27%
20:00 +20°C° 0 mm 2 mps 729 mmHg 30%
21:00 +20°C° 0 mm 2 mps 729 mmHg 31%
22:00 +19°C° 0 mm 2 mps 729 mmHg 32%
23:00 +19°C° 0 mm 2 mps 729 mmHg 33%

18 April, Sunday

Time Temperature Precipitation Wind Pressure Humidity
00:00 +18°C° 0 mm 2 mps 729 mmHg 34%
01:00 +18°C° 0 mm 2 mps 728 mmHg 35%
02:00 +17°C° 0 mm 2 mps 728 mmHg 37%
03:00 +17°C° 0 mm 2 mps 728 mmHg 37%
04:00 +17°C° 0 mm 2 mps 729 mmHg 38%
05:00 +16°C° 0 mm 2 mps 729 mmHg 38%
06:00 +17°C° 0 mm 2 mps 729 mmHg 37%
07:00 +18°C° 0 mm 3 mps 729 mmHg 36%
08:00 +19°C° 0 mm 3 mps 730 mmHg 34%
09:00 +20°C° 0 mm 4 mps 730 mmHg 31%
10:00 +21°C° 0 mm 5 mps 730 mmHg 28%
11:00 +23°C° 0 mm 6 mps 730 mmHg 25%
12:00 +23°C° 0 mm 7 mps 730 mmHg 25%
13:00 +23°C° 0 mm 7 mps 730 mmHg 24%
14:00 +24°C° 0 mm 8 mps 730 mmHg 24%
15:00 +24°C° 0 mm 7 mps 730 mmHg 24%
16:00 +24°C° 0 mm 7 mps 729 mmHg 23%
17:00 +24°C° 0 mm 6 mps 729 mmHg 23%
18:00 +22°C° 0 mm 5 mps 729 mmHg 28%
19:00 +21°C° 0 mm 5 mps 729 mmHg 33%
20:00 +20°C° 0 mm 4 mps 729 mmHg 37%
21:00 +19°C° 0 mm 5 mps 729 mmHg 40%
22:00 +17°C° 0 mm 5 mps 729 mmHg 42%
23:00 +16°C° 0 mm 5 mps 729 mmHg 45%

19 April, Monday

Time Temperature Precipitation Wind Pressure Humidity
00:00 +16°C° 0 mm 5 mps 728 mmHg 44%
01:00 +15°C° 0 mm 4 mps 728 mmHg 43%
02:00 +15°C° 0 mm 4 mps 728 mmHg 42%
03:00 +14°C° 0 mm 4 mps 728 mmHg 42%
04:00 +14°C° 0 mm 3 mps 728 mmHg 43%
05:00 +14°C° 0 mm 2 mps 728 mmHg 43%
06:00 +16°C° 0 mm 2 mps 728 mmHg 41%
07:00 +17°C° 0 mm 2 mps 728 mmHg 39%
08:00 +18°C° 0 mm 2 mps 728 mmHg 37%
09:00 +19°C° 0 mm 2 mps 728 mmHg 33%
10:00 +21°C° 0 mm 2 mps 728 mmHg 30%
11:00 +23°C° 0 mm 2 mps 728 mmHg 27%
12:00 +24°C° 0 mm 3 mps 728 mmHg 25%
13:00 +24°C° 0 mm 3 mps 727 mmHg 23%
14:00 +25°C° 0 mm 4 mps 727 mmHg 21%
15:00 +25°C° 0 mm 5 mps 727 mmHg 22%
16:00 +24°C° 0 mm 7 mps 727 mmHg 23%
17:00 +23°C° 0 mm 8 mps 726 mmHg 24%
18:00 +22°C° 0 mm 7 mps 727 mmHg 32%
19:00 +20°C° 0 mm 7 mps 727 mmHg 39%
20:00 +17°C° 0 mm 6 mps 727 mmHg 47%
21:00 +17°C° 0.1 mm 5 mps 727 mmHg 50%
22:00 +17°C° 0.1 mm 4 mps 727 mmHg 54%
23:00 +16°C° 0.1 mm 3 mps 727 mmHg 57%
Show more

We Need Your Consent

Meteoprog and our Service Providers may store and access personal data such as cookies, device identifiers or other similar technologies on your device and process such data to personalise content and ads, as well as provide social media features and to analyse the traffic.

  • Store and/or access information on your device

    Cookies, device identifiers or other information can be stored or accessed on your device for the purposes indicated above.

  • Personalised ads and content, ad and content measurement, audience insights, and products development

    Ads and content can be personalised based on a profile. More data can be added to better personalise ads and content. Ad and content performance can be measured. Insights about the audience who saw the ads and content can be derived. Such data can be used to develop or improve user’s experience, systems and software.

By clicking ‘I Agree’ you will allow the use of indicated cookies, device identifiers, web beacons or other similar technologies. Your settings can be changed in the browser on your device.

For certain purposes, legitimate interests may be relied on, rather than consent. You can read more about this in our Privacy and Cookie Policy.